TimePDT,TemperatureF,Dew PointF,Humidity,Sea Level PressureIn,VisibilityMPH,Wind Direction,Wind SpeedMPH,Gust SpeedMPH,PrecipitationIn,Events,Conditions,WindDirDegrees,DateUTC
12:20 AM,62.6,55.4,77,30.02,8.0,South,4.6,-,N/A,,Partly Cloudy,180,2013-04-28 07:20:00
12:40 AM,62.6,55.4,77,30.02,8.0,SSE,5.8,-,N/A,,Mostly Cloudy,160,2013-04-28 07:40:00
12:53 AM,62.1,55.0,78,30.01,8.0,Calm,Calm,-,N/A,,Mostly Cloudy,0,2013-04-28 07:53:00
1:11 AM,62.6,55.4,77,30.01,8.0,Calm,Calm,-,N/A,,Overcast,0,2013-04-28 08:11:00
1:53 AM,63.0,55.0,75,30.01,9.0,Calm,Calm,-,N/A,,Overcast,0,2013-04-28 08:53:00
2:53 AM,63.0,55.0,75,29.99,9.0,Calm,Calm,-,N/A,,Overcast,0,2013-04-28 09:53:00
3:53 AM,62.1,54.0,75,29.99,9.0,SSW,3.5,-,N/A,,Overcast,200,2013-04-28 10:53:00
4:53 AM,63.0,54.0,72,29.99,9.0,Calm,Calm,-,N/A,,Overcast,0,2013-04-28 11:53:00
6:53 AM,63.0,54.0,72,29.99,8.0,Calm,Calm,-,N/A,,Overcast,0,2013-04-28 13:53:00
7:53 AM,63.0,54.0,72,29.99,7.0,East,5.8,-,N/A,,Overcast,90,2013-04-28 14:53:00
8:53 AM,64.0,54.0,70,29.99,7.0,Calm,Calm,-,N/A,,Overcast,0,2013-04-28 15:53:00
9:23 AM,66.2,53.6,64,29.98,8.0,Calm,Calm,-,N/A,,Scattered Clouds,0,2013-04-28 16:23:00
9:53 AM,69.1,54.0,58,29.98,8.0,Calm,Calm,-,N/A,,Clear,0,2013-04-28 16:53:00
10:53 AM,72.0,54.0,53,29.97,9.0,SSE,3.5,-,N/A,,Clear,160,2013-04-28 17:53:00
11:53 AM,75.9,54.0,46,29.95,9.0,Variable,3.5,-,N/A,,Clear,0,2013-04-28 18:53:00
12:53 PM,77.0,55.0,47,29.93,10.0,SW,6.9,-,N/A,,Clear,230,2013-04-28 19:53:00
1:53 PM,77.0,55.0,47,29.91,10.0,Variable,6.9,-,N/A,,Clear,0,2013-04-28 20:53:00
2:53 PM,78.1,55.0,45,29.89,10.0,Variable,5.8,-,N/A,,Clear,0,2013-04-28 21:53:00
3:53 PM,75.9,55.9,50,29.87,10.0,SW,5.8,-,N/A,,Clear,230,2013-04-28 22:53:00
4:53 PM,75.9,55.9,50,29.86,10.0,SSW,8.1,-,N/A,,Clear,210,2013-04-28 23:53:00
5:53 PM,73.9,55.9,53,29.85,10.0,South,9.2,-,N/A,,Clear,190,2013-04-29 00:53:00
6:53 PM,70.0,55.0,59,29.85,10.0,South,6.9,-,N/A,,Clear,190,2013-04-29 01:53:00
7:53 PM,66.9,55.0,66,29.86,10.0,SSW,5.8,-,N/A,,Clear,200,2013-04-29 02:53:00
8:53 PM,64.0,55.0,73,29.88,9.0,South,4.6,-,N/A,,Clear,170,2013-04-29 03:53:00
9:53 PM,62.1,55.0,78,29.89,9.0,Calm,Calm,-,N/A,,Scattered Clouds,0,2013-04-29 04:53:00
10:12 PM,62.6,55.4,77,29.90,8.0,SSE,5.8,-,N/A,,Mostly Cloudy,160,2013-04-29 05:12:00
10:53 PM,62.1,55.0,78,29.90,8.0,SSW,5.8,-,N/A,,Overcast,200,2013-04-29 05:53:00
11:53 PM,62.1,55.0,78,29.90,8.0,SW,4.6,-,N/A,,Overcast,220,2013-04-29 06:53:00